Wind_Speed
10 11 12 12 12 12 11 12 11 10 11 10 10 10 10 12 13 12 11 10 7 7 9 9 7 7 8 9 9 6 6 8 4 4 8 9 8 7 7 7 7 7 7 8 8 8 7 7 6 6 6 7 7 7 7 7 7 6 6 5 4 3 2 2 2 3 4 4 4 4 5 6 6 6 6 7 7 7 6 6 5 5 5 5 6
10 10 12 12 13 13 11 12 12 10 11 10 10 11 11 12 13 12 11 9 6 8 11 7 6 7 7 8 7 6 7 9 5 2 6 9 8 8 8 8 8 8 8 8 7 7 7 7 7 7 7 7 7 7 7 7 7 6 6 5 5 4 3 3 2 3 4 4 4 5 5 6 6 7 7 7 7 7 6 6 5 4 5 5 6
10 10 12 13 13 13 11 10 11 10 10 9 9 11 12 12 11 11 11 10 6 7 10 7 6 7 7 7 6 5 6 7 7 3 5 6 7 7 7 7 7 7 7 7 7 7 7 7 7 8 8 8 7 7 7 7 6 6 6 6 6 5 5 4 4 4 5 5 6 6 6 7 7 7 7 7 7 7 7 6 6 5 5 6 7
12 11 11 12 12 12 10 8 9 9 8 9 9 12 13 11 10 11 12 11 7 6 9 7 7 7 6 7 5 5 5 6 7 3 5 6 7 7 7 7 7 8 7 7 7 8 8 8 9 8 8 8 8 7 7 6 6 6 6 6 6 6 6 6 6 6 6 7 7 7 7 7 8 8 8 8 8 8 8 8 7 7 7 7 7
14 12 11 11 11 11 10 9 10 10 9 9 10 11 11 11 12 12 11 11 10 9 7 6 8 7 5 6 5 5 5 6 7 3 4 6 5 5 6 6 7 8 8 8 9 9 9 9 9 9 9 9 8 7 7 7 7 7 7 6 6 6 6 6 7 7 7 7 7 8 8 8 8 9 9 9 9 9 9 9 9 9 9 9 9
13 12 11 11 11 10 10 9 11 12 10 10 10 8 9 12 12 12 11 9 8 8 6 6 8 7 5 5 5 6 5 5 6 5 4 2 2 3 5 6 6 6 6 8 10 10 10 11 10 10 9 9 8 7 7 7 7 7 7 6 6 6 6 6 7 7 7 8 8 8 8 8 9 9 9 9 10 10 10 10 10 10 10 10 10
12 13 12 11 11 9 9 10 10 11 10 10 9 7 9 10 9 10 10 7 5 6 6 6 7 7 6 5 5 6 4 4 5 5 3 2 2 2 3 5 5 6 7 9 11 11 11 11 11 10 10 9 8 7 7 7 7 7 7 7 7 7 7 7 7 7 8 8 8 9 9 9 9 10 10 10 10 11 11 11 11 12 12 12 12
13 14 12 11 10 8 8 9 9 10 9 8 8 8 9 8 7 9 8 8 7 5 6 6 6 6 5 5 5 5 3 4 6 4 2 1 3 4 2 4 4 5 9 10 10 11 11 9 10 11 11 11 9 8 7 7 7 7 7 7 7 8 8 8 8 8 9 9 9 10 10 10 10 11 11 11 12 12 12 13 13 14 14 14 14
13 13 12 10 7 6 8 8 8 9 9 8 7 8 7 6 8 9 8 8 8 5 5 6 5 5 5 4 4 4 2 4 6 3 3 3 3 2 3 6 6 6 8 9 10 11 10 9 7 9 12 12 11 9 8 8 8 8 8 8 8 9 9 9 9 9 10 10 10 10 11 11 11 11 12 12 13 13 14 14 15 15 16 17 17
14 13 11 10 8 7 8 8 8 9 10 8 7 7 7 7 8 10 8 7 9 6 4 5 5 5 5 3 3 5 2 2 5 3 4 4 3 2 3 6 7 8 6 2 7 10 11 10 7 7 10 11 11 10 9 9 9 9 9 9 9 10 10 11 11 11 11 12 12 12 12 12 13 13 14 14 14 15 15 15 16 17 18 18 19
13 11 10 10 9 8 8 8 8 9 10 9 7 6 7 9 9 9 8 7 9 7 5 5 4 5 6 3 2 5 3 1 2 3 3 2 2 4 2 3 2 5 6 4 3 10 12 11 7 7 9 10 9 10 10 10 10 10 10 11 11 12 12 12 12 13 13 13 13 14 14 14 14 15 15 15 16 16 16 17 17 18 19 20 20
11 10 9 8 8 8 8 8 8 8 10 9 7 6 6 8 8 7 8 7 7 6 5 4 3 5 6 3 2 2 1 2 4 2 3 2 2 5 3 1 1 2 4 5 1 6 11 11 10 10 12 9 7 8 10 11 12 12 12 13 14 14 14 15 14 14 14 15 15 15 15 15 15 16 16 17 17 18 18 18 18 19 20 21 21
9 9 9 8 7 8 7 8 8 8 9 8 8 8 8 7 7 8 8 6 5 4 3 4 4 5 5 3 3 2 2 4 7 3 2 1 4 6 4 1 3 3 3 3 2 2 7 10 10 8 12 10 6 8 9 10 13 14 14 15 15 16 16 16 16 16 16 16 16 15 16 16 16 17 17 18 18 19 19 19 19 19 20 20 20
7 7 8 8 7 7 7 7 7 6 7 8 8 8 8 8 8 8 7 6 5 3 3 5 5 3 4 4 4 2 1 2 4 3 3 3 1 3 3 3 1 5 3 6 7 5 1 6 7 5 9 8 6 8 9 10 13 15 15 15 16 17 18 18 18 18 17 17 17 16 16 17 17 18 19 19 19 19 18 18 18 18 18 18 19
7 6 7 6 6 7 7 6 7 7 7 8 8 8 9 8 9 9 7 6 4 3 4 6 5 2 4 5 3 3 2 2 2 3 3 1 2 2 2 2 1 1 2 5 5 7 2 4 7 7 5 6 7 8 10 11 13 15 16 16 17 18 19 19 20 19 19 19 18 18 18 19 19 20 20 19 18 17 17 16 16 16 16 17 17
7 6 6 5 6 7 7 6 6 7 7 7 8 8 9 8 8 9 8 7 5 3 4 5 4 3 3 3 4 3 3 3 3 3 4 1 2 2 0 2 2 2 2 1 1 2 3 6 10 12 7 8 9 10 12 11 13 15 17 18 19 20 20 20 20 19 19 19 19 19 19 19 18 18 17 16 15 14 14 15 15 15 16 17 18
6 6 5 5 5 5 6 7 6 7 7 8 8 8 7 6 7 9 7 7 7 4 4 3 2 4 6 4 5 3 2 2 1 3 4 2 4 2 1 5 2 4 3 1 0 0 4 7 11 12 11 11 10 11 12 11 10 14 17 19 19 19 19 19 18 18 17 17 17 16 16 15 15 14 14 13 13 13 13 14 14 15 17 18 19
5 6 5 5 5 5 6 7 6 6 8 8 7 6 5 4 6 8 6 6 8 7 5 3 2 5 7 4 5 4 2 2 3 3 3 1 5 3 3 5 3 5 4 3 3 3 1 4 9 11 10 10 7 8 11 8 8 12 15 16 17 18 18 18 17 16 15 14 14 14 13 13 13 12 12 12 12 13 13 14 15 16 17 18 18
6 6 5 6 6 6 7 8 7 7 7 8 8 7 6 6 6 7 6 7 8 9 8 4 2 5 4 2 3 3 2 4 4 3 0 2 4 3 3 4 1 3 3 2 4 1 1 2 4 8 6 7 7 7 6 7 10 12 15 16 17 18 17 16 15 14 13 12 12 12 13 13 12 12 12 12 13 13 14 15 16 16 16 16 17
6 6 5 6 6 7 7 8 8 7 7 7 7 7 7 7 7 7 7 7 7 8 8 6 5 4 3 3 4 2 3 3 2 3 2 1 2 1 3 4 3 3 1 2 3 4 4 3 1 3 5 8 10 7 6 10 12 13 16 17 17 17 16 15 13 12 11 10 11 11 12 12 12 12 13 13 14 14 15 15 15 15 15 15 16
7 5 5 6 6 7 7 7 8 8 8 6 5 5 6 7 6 6 6 7 8 6 5 6 6 4 3 3 4 4 3 3 3 2 0 1 1 2 3 4 3 3 0 3 3 3 4 3 2 2 3 8 8 7 10 11 10 13 17 18 16 16 16 15 14 12 11 10 11 11 12 12 12 13 13 13 14 14 15 14 15 15 15 16 16
7 5 5 6 6 7 6 7 7 7 8 7 6 4 5 6 6 6 6 6 7 6 6 6 5 6 3 0 3 5 5 6 4 2 2 1 2 1 2 3 2 3 1 0 2 1 2 4 2 3 4 7 7 9 12 11 9 13 18 17 15 18 19 17 15 13 13 12 12 13 13 13 13 13 13 13 15 15 15 15 15 16 16 16 16
7 6 6 6 7 7 6 7 7 6 7 7 7 5 5 5 6 6 6 6 6 6 7 6 5 5 2 2 3 4 4 6 4 4 4 1 1 1 1 1 2 2 2 1 3 1 1 2 1 2 2 5 10 10 9 11 11 12 17 16 16 20 21 19 16 14 15 13 13 14 14 14 13 13 14 14 16 17 18 19 18 17 17 17 16
8 7 6 7 8 7 7 7 7 7 7 7 8 8 6 6 6 6 6 6 6 6 6 6 5 5 3 1 2 2 2 3 2 3 2 3 4 1 4 1 1 1 3 3 3 1 1 3 2 3 3 4 11 12 8 11 10 11 15 16 17 20 21 19 16 16 17 15 14 15 15 15 14 14 15 15 17 19 20 21 20 19 18 18 18
9 8 7 8 8 8 8 7 7 8 7 7 7 8 8 7 6 6 6 6 6 6 6 6 5 4 4 4 2 2 3 1 2 3 0 1 2 3 3 1 2 1 0 1 0 2 1 1 3 6 7 7 12 14 9 9 9 10 15 16 17 20 20 18 16 17 18 17 16 16 16 16 16 16 16 17 19 20 21 22 22 20 19 19 18
11 8 7 9 8 8 9 7 7 8 7 6 7 7 8 7 6 7 7 6 6 6 6 6 5 4 4 5 4 3 3 1 2 3 1 1 0 2 3 2 2 2 0 1 2 3 0 2 5 9 11 11 14 15 10 8 9 12 15 16 17 18 18 17 16 16 19 18 18 17 17 17 17 17 17 18 20 21 22 23 22 21 20 19 19
11 9 9 10 9 8 9 8 8 7 6 7 7 7 7 7 7 8 8 6 6 6 5 5 5 4 4 4 5 5 3 2 2 1 2 2 2 1 2 2 2 3 2 3 2 2 1 2 4 8 12 13 15 15 12 9 11 14 16 16 16 17 17 16 15 16 19 20 20 19 18 18 17 17 18 18 19 20 22 23 23 22 20 19 20
11 11 11 11 10 9 9 9 9 8 7 7 7 7 7 6 6 8 8 6 6 5 5 5 5 3 3 3 5 6 5 4 3 2 3 4 4 3 1 2 2 2 4 3 0 2 1 2 4 7 11 14 15 14 12 11 12 16 16 16 16 16 15 15 15 16 18 21 22 21 19 19 18 18 18 18 19 20 21 22 22 22 21 20 20
11 12 12 13 12 11 9 9 9 8 8 8 8 7 7 7 6 6 7 7 5 5 5 6 5 3 3 3 3 4 5 6 5 3 4 5 5 4 2 2 3 1 1 1 2 3 2 3 3 6 10 14 15 11 10 10 13 16 16 16 17 16 15 15 16 17 18 20 22 23 22 21 20 19 19 19 19 19 20 21 22 22 22 21 21
13 12 13 13 14 12 10 10 10 9 9 9 8 8 7 7 7 6 6 7 6 6 6 6 5 4 5 4 4 3 3 3 4 2 4 5 3 3 2 4 4 2 3 3 3 3 3 2 2 8 11 12 12 9 9 12 14 14 15 16 17 16 15 15 16 18 17 19 21 23 24 23 21 21 20 19 19 19 20 20 21 22 23 22 22
15 14 14 14 14 14 13 13 12 10 10 10 9 9 9 8 8 7 6 7 7 7 6 6 6 5 6 6 6 6 4 4 6 5 4 3 2 3 3 5 5 4 4 4 4 5 5 3 3 7 8 8 10 12 16 17 13 12 14 17 18 16 16 16 18 18 17 18 21 23 24 23 22 22 21 20 19 20 20 20 20 21 23 23 23
17 17 16 15 14 14 14 14 13 12 11 11 11 10 10 9 9 8 6 6 7 7 7 7 6 5 6 6 6 6 5 5 7 7 6 4 3 3 4 4 5 5 4 5 6 7 6 5 6 7 6 8 11 14 16 16 13 12 14 17 16 13 14 17 19 19 19 19 21 22 24 23 22 22 22 20 19 20 20 20 20 21 22 23 24
17 18 18 17 14 14 14 14 13 13 12 12 11 11 11 11 10 9 8 7 7 8 8 8 7 7 7 7 7 7 6 6 6 6 5 4 4 4 3 5 5 5 5 6 8 9 8 7 8 8 6 8 11 12 12 13 14 15 15 15 13 11 12 16 18 19 19 20 20 21 22 22 21 22 22 21 20 20 20 20 21 21 22 23 23
18 18 19 19 17 16 15 14 14 14 14 13 12 12 12 12 12 11 10 10 9 9 9 8 9 9 9 9 8 7 7 6 6 6 4 4 5 5 6 7 5 5 7 9 11 11 11 9 9 10 8 8 9 10 12 15 17 17 15 15 14 11 9 14 17 18 18 18 20 21 21 21 21 21 22 22 21 20 20 21 22 22 22 22 23
19 19 18 18 19 19 17 16 15 15 15 15 14 14 13 13 13 12 11 11 11 11 11 10 9 10 10 10 9 8 7 6 6 6 5 6 7 7 8 7 6 6 6 7 10 12 13 12 11 11 10 9 10 13 15 16 16 16 15 14 15 14 11 12 15 16 16 17 19 20 20 21 21 21 21 21 21 21 20 21 23 23 22 22 22
19 20 19 18 18 19 19 18 18 17 16 16 16 16 15 15 14 14 14 13 13 12 12 11 11 10 10 10 10 8 7 8 9 9 8 8 8 8 9 9 10 11 11 10 11 13 15 15 13 12 13 13 13 14 14 15 14 14 14 13 14 16 15 14 14 14 14 17 18 18 20 21 21 21 21 21 22 22 21 21 23 23 23 22 22
19 19 20 19 18 19 20 20 21 20 19 18 18 17 17 17 17 16 15 16 16 15 14 13 12 12 12 12 11 10 10 11 12 12 10 9 8 9 9 9 10 10 10 11 12 13 14 15 15 14 14 14 14 13 13 14 15 15 15 14 13 13 14 13 13 13 15 17 18 18 19 20 19 20 21 21 21 23 22 22 23 23 24 24 23
19 19 19 20 20 20 20 20 21 22 21 21 21 20 18 17 17 17 16 16 17 17 16 16 15 15 15 14 13 12 13 13 12 11 10 10 10 10 10 10 11 11 10 11 12 13 15 16 16 16 14 13 13 13 12 12 14 16 18 16 13 11 10 10 11 14 16 17 17 18 20 20 19 20 21 21 22 22 23 23 22 22 25 26 25
20 19 19 20 20 21 21 22 22 21 22 22 22 22 20 18 17 17 17 17 18 18 17 17 16 15 15 14 14 14 14 13 13 12 12 12 13 12 12 12 13 13 14 13 13 14 15 16 16 15 14 13 12 12 12 12 13 15 16 16 15 14 12 11 12 13 14 15 18 20 20 18 18 20 21 21 22 22 22 23 21 21 25 27 26
20 20 20 19 20 20 21 23 23 22 22 23 23 23 23 21 19 18 18 18 18 18 18 17 16 15 15 14 14 14 14 14 13 12 12 13 13 14 14 13 13 14 15 15 14 14 14 15 15 15 15 15 16 16 15 13 13 13 14 16 17 15 13 14 15 13 13 16 17 18 18 18 19 20 21 23 24 23 22 22 20 20 25 28 28
20 20 20 19 19 20 20 21 22 22 22 23 24 24 24 24 23 21 21 21 20 19 18 18 17 16 16 16 15 15 16 16 15 15 14 14 15 15 15 14 14 15 16 16 17 16 17 17 18 18 19 19 18 17 14 13 14 15 15 16 18 15 13 16 18 17 19 20 16 14 17 19 20 21 22 23 23 21 22 22 19 20 25 27 28
20 20 19 20 20 20 20 20 21 22 22 23 24 25 25 25 25 24 23 22 22 21 20 20 19 19 18 18 18 17 17 17 18 18 18 19 19 18 17 16 17 18 19 19 20 20 20 20 20 20 20 20 18 16 15 15 15 16 15 16 17 15 15 18 21 23 23 21 17 15 16 18 20 22 23 22 20 19 22 21 19 20 24 26 27
21 21 20 20 21 20 20 21 21 22 22 22 23 25 26 25 25 25 25 24 24 23 23 23 23 22 21 20 20 19 19 20 21 21 22 23 24 23 22 21 21 21 22 23 23 23 23 23 22 21 21 21 20 18 18 18 16 15 15 15 16 16 17 20 24 26 25 21 17 17 18 19 21 23 23 21 20 20 21 21 19 21 23 24 25
20 23 23 23 24 23 22 21 21 22 23 22 23 25 26 26 26 26 26 25 26 26 25 25 25 25 25 24 23 21 20 21 22 23 25 25 25 25 24 23 22 22 23 24 25 26 25 25 25 25 24 24 24 23 23 23 21 19 19 20 20 21 23 24 26 27 25 21 19 20 21 22 22 22 20 18 20 22 21 20 21 21 21 22 24
22 25 25 26 27 28 27 25 23 23 24 24 24 25 26 27 27 27 27 27 27 27 26 26 27 27 27 27 26 25 23 22 22 23 24 25 25 25 25 25 25 24 24 25 25 26 27 27 28 29 27 27 27 27 26 26 25 24 24 26 26 26 27 27 27 26 24 22 21 22 25 23 19 18 17 14 17 20 20 20 21 20 20 22 23
24 26 26 27 28 29 30 31 29 27 25 24 25 26 27 28 29 29 30 30 29 29 28 26 26 26 26 27 27 28 27 26 25 24 24 24 24 24 26 28 29 29 28 27 26 27 28 29 31 32 29 28 29 29 27 28 29 29 29 30 29 29 28 26 25 24 22 22 21 23 25 21 16 17 18 15 15 18 18 20 20 19 20 23 23
23 24 26 27 28 28 29 31 32 31 30 27 26 26 26 28 29 30 31 31 31 31 30 29 28 27 27 26 27 27 28 29 28 28 27 27 26 27 28 31 33 33 33 31 29 28 29 30 32 33 32 30 30 30 28 28 28 29 30 30 29 28 28 26 25 24 24 23 21 21 22 18 16 18 19 16 16 16 16 18 19 20 21 22 21
23 24 24 26 27 27 27 28 31 33 32 31 30 29 28 27 28 28 30 32 33 32 32 32 32 32 32 32 31 31 30 30 30 30 29 29 29 30 31 32 33 34 34 33 31 29 29 30 30 32 32 31 29 28 25 24 24 24 25 27 26 25 25 25 25 25 25 23 20 19 20 19 17 18 18 17 18 16 14 17 20 21 22 21 19
22 23 24 25 26 27 27 27 29 31 32 32 32 32 31 31 30 30 30 31 32 33 33 33 34 35 36 37 38 38 38 37 35 35 33 32 33 33 33 34 34 34 34 32 30 29 30 31 31 31 31 30 28 27 25 24 23 22 22 25 25 25 26 26 26 26 26 25 21 18 20 21 19 17 16 16 16 15 15 17 19 20 21 21 21
20 22 24 26 27 27 27 27 27 29 31 31 31 31 31 31 33 34 33 33 33 34 34 35 36 36 37 38 40 41 42 42 41 40 38 37 37 37 37 37 36 37 37 34 31 30 30 30 30 31 31 29 28 27 25 25 25 23 24 25 24 23 26 28 29 29 28 28 25 20 20 21 20 18 16 15 16 18 19 19 18 19 20 21 22
19 20 22 24 26 27 28 27 27 28 30 31 31 30 30 31 31 33 34 35 36 36 37 37 38 39 39 38 38 39 41 42 42 41 40 40 40 40 39 38 38 40 39 37 35 34 32 31 31 30 30 29 28 27 26 26 26 26 26 26 25 24 27 29 29 29 29 28 24 19 20 21 19 17 15 15 16 19 20 18 17 19 21 22 24
Wind_Direction
124 136 138 129 127 126 122 118 118 112 101 98 97 97 94 96 100 105 114 113 110 108 102 105 112 110 106 107 111 116 117 115 105 33 62 78 85 96 103 97 94 87 80 76 72 69 63 57 50 42 38 34 31 26 22 19 17 18 17 20 21 18 9 345 328 325 329 331 330 334 338 342 347 346 347 348 349 350 352 351 346 338 323 307 297
124 131 133 121 118 116 114 111 109 104 101 103 105 105 107 111 109 104 107 102 92 94 94 99 108 112 106 101 108 96 90 104 114 37 50 75 80 78 87 87 84 81 75 71 65 60 54 48 44 37 34 32 29 27 24 23 22 22 23 24 24 21 23 20 5 356 357 357 355 357 360 2 2 359 358 356 354 353 351 348 345 336 319 306 299
126 121 122 118 111 106 106 106 108 113 114 116 115 114 115 117 109 104 112 102 85 95 98 98 91 98 107 105 108 91 80 90 102 83 26 55 85 77 74 78 75 72 66 64 60 56 52 47 44 39 35 35 32 33 31 31 32 32 34 34 35 35 37 41 39 36 30 25 23 20 19 16 12 8 6 4 3 1 358 355 350 342 329 315 306
130 119 125 124 118 116 118 118 124 125 119 122 117 113 116 120 116 110 109 100 91 97 97 102 104 104 109 108 115 103 81 83 100 106 356 27 81 83 73 73 71 72 67 64 60 56 53 47 45 43 42 41 39 39 38 39 42 42 45 45 46 46 45 45 44 42 38 34 30 27 25 21 18 15 12 10 8 4 0 357 352 345 337 327 317
127 126 133 130 128 132 133 138 139 131 129 127 113 110 116 113 112 110 104 93 84 82 86 95 102 107 110 107 111 102 90 92 103 103 21 28 55 68 76 82 76 74 67 60 56 51 49 47 47 46 45 44 42 42 42 43 46 45 47 48 48 49 48 45 43 40 36 34 30 26 24 21 19 16 13 12 8 4 360 356 351 345 339 332 326
129 128 129 130 135 138 140 145 140 136 139 130 115 117 115 103 103 105 94 83 77 84 93 90 99 110 105 99 102 98 97 102 111 116 103 81 45 31 40 62 75 76 69 55 49 46 47 47 47 46 44 43 40 40 40 41 41 41 40 39 39 41 41 40 38 37 32 29 25 22 20 18 16 12 10 8 4 1 357 352 348 343 338 334 328
135 128 125 132 136 138 146 151 147 143 139 128 121 119 109 101 100 100 91 81 84 101 103 90 101 113 103 102 105 102 102 101 110 121 127 116 96 90 19 25 38 45 56 55 45 43 45 46 46 45 43 39 37 36 36 37 36 35 33 30 28 27 28 29 27 27 25 23 19 16 14 12 10 7 6 3 0 357 353 349 345 340 337 334 330
138 131 127 134 137 138 147 152 153 144 137 132 128 123 118 118 114 110 106 97 93 97 99 93 98 105 100 102 101 107 114 88 93 101 110 64 63 92 65 28 26 26 38 40 32 31 36 42 43 42 38 33 32 34 35 35 32 29 26 22 21 20 19 20 19 18 18 16 13 12 10 8 6 4 3 360 357 354 350 347 343 340 337 334 332
139 132 124 127 137 146 147 152 154 145 144 137 127 138 142 138 133 125 117 106 101 95 92 92 93 96 99 108 104 107 119 113 127 125 64 67 81 76 4 20 44 40 27 15 5 9 21 30 34 34 29 26 27 29 31 31 28 24 23 21 20 19 18 17 15 14 13 11 10 8 7 5 3 1 358 356 353 349 346 343 341 338 336 335 334
141 140 134 135 146 148 142 145 150 153 153 136 123 145 145 144 148 134 122 108 101 100 100 96 95 97 102 110 111 113 115 138 153 149 37 52 116 141 358 15 27 25 36 8 329 343 6 19 28 30 19 17 23 26 27 26 26 24 22 22 20 17 16 14 12 10 8 7 5 3 1 360 357 354 351 348 347 344 342 341 339 338 336 336 335
143 145 141 140 141 137 137 138 141 153 149 136 139 155 140 139 147 143 132 108 95 101 104 93 87 101 106 76 69 121 125 121 124 92 79 78 148 157 82 38 2 356 43 91 310 323 345 6 24 30 14 8 15 21 24 24 25 25 22 19 16 13 10 7 6 3 1 359 358 356 354 353 350 348 346 344 343 341 339 338 337 336 335 334 334
148 147 141 139 136 136 142 136 135 148 145 140 149 161 150 138 143 146 132 111 100 103 101 96 95 103 109 73 29 94 65 126 139 73 102 123 61 121 150 17 8 333 31 65 51 300 323 357 24 17 2 360 8 16 21 22 20 19 19 17 12 9 6 3 1 359 357 355 352 352 349 348 346 344 342 340 338 337 336 335 333 333 332 331 331
151 148 144 145 144 143 144 138 139 149 152 150 148 150 150 137 136 131 120 114 99 89 94 97 88 83 95 74 46 63 20 101 129 115 119 135 42 82 132 180 24 35 53 32 60 224 302 358 31 4 336 341 11 22 20 21 20 17 15 13 9 6 3 360 358 355 353 352 350 348 346 344 343 342 341 339 336 335 333 332 331 330 329 326 325
143 146 149 151 149 142 138 142 145 149 155 155 148 146 145 138 134 122 111 117 111 126 138 90 70 63 96 98 69 89 96 87 118 164 159 141 100 76 105 149 17 20 24 331 3 65 346 341 8 326 313 339 15 17 18 22 16 11 7 4 2 359 356 353 350 348 346 345 343 342 341 340 340 339 338 338 336 335 334 333 332 331 328 325 322
141 146 152 152 147 142 144 150 150 151 151 148 147 143 141 140 133 122 114 117 107 134 136 96 87 90 92 100 85 66 61 92 127 184 177 141 161 138 60 119 147 29 26 309 345 49 44 294 343 350 352 22 30 15 16 14 1 357 358 358 357 352 349 346 342 340 338 336 336 335 335 335 335 336 336 338 339 340 340 339 338 336 333 329 325
143 150 152 149 148 150 156 156 151 155 149 142 143 139 140 141 133 128 127 128 115 99 110 94 94 119 110 94 96 77 53 87 116 145 147 157 190 166 18 167 206 321 28 333 284 31 297 283 347 8 26 32 29 22 14 0 346 346 350 351 352 348 345 342 338 336 334 333 332 332 333 334 336 338 341 344 347 347 346 343 343 339 334 331 328
145 155 156 154 159 160 161 159 156 157 148 142 140 134 137 139 141 141 132 134 135 127 113 84 64 114 118 97 89 79 23 66 128 166 156 137 159 154 86 155 253 337 83 93 299 101 279 294 335 356 18 21 14 15 16 9 347 337 342 346 347 347 346 345 343 342 340 340 340 340 342 345 348 351 352 353 350 346 344 340 339 335 331 330 329
161 163 162 164 170 162 158 159 161 158 149 143 138 132 135 144 159 151 134 141 146 140 126 105 86 96 91 78 67 40 15 64 71 146 202 202 151 144 80 143 275 349 73 71 70 106 257 302 329 341 3 9 358 10 19 10 335 332 344 351 351 354 355 353 352 353 353 355 357 358 359 0 360 357 352 348 344 339 338 335 333 332 330 330 331
172 173 166 165 166 160 162 163 158 154 149 149 146 145 151 159 177 174 162 169 156 139 132 124 107 93 88 87 67 44 87 87 60 100 332 351 152 166 106 144 250 2 26 66 124 106 45 143 338 331 330 344 0 27 14 322 326 351 2 2 1 3 2 2 3 4 4 6 7 6 3 1 356 351 346 342 340 336 335 335 334 334 333 334 337
181 183 172 167 169 168 170 168 163 154 146 153 151 152 168 172 185 191 177 176 167 148 138 133 119 109 142 141 103 111 113 92 112 122 54 28 143 120 103 138 137 115 22 79 121 333 2 119 148 277 287 338 6 17 337 326 342 2 10 8 7 8 8 13 15 13 11 12 12 7 360 357 353 349 346 342 342 340 339 341 340 341 342 343 344
191 189 180 179 179 174 172 169 169 159 150 161 154 151 178 182 188 186 167 167 171 165 147 138 137 132 148 155 142 149 139 130 131 112 292 205 128 12 101 138 143 145 319 47 72 348 2 42 96 150 323 344 357 342 330 343 359 359 6 12 11 12 18 23 23 18 17 15 13 10 3 1 358 356 355 353 353 352 350 351 350 350 350 350 351
197 192 188 189 182 176 173 167 173 167 156 166 164 167 194 182 178 178 168 173 171 165 156 143 142 134 114 329 154 143 149 159 156 149 191 172 19 337 152 149 165 155 187 258 123 91 356 15 90 129 13 330 311 329 333 347 11 359 360 10 11 17 24 24 23 22 21 20 17 15 12 10 9 6 6 6 7 4 1 359 357 356 357 359 3
202 195 192 191 184 181 177 170 181 178 162 169 172 175 194 179 176 179 175 180 173 170 168 156 148 136 108 355 95 102 126 138 142 155 158 177 344 350 17 69 169 140 21 329 148 144 309 45 120 253 360 295 305 342 341 340 3 356 352 6 15 19 22 20 21 25 25 24 22 20 19 18 18 16 16 16 17 13 9 4 1 3 7 11 13
204 202 195 194 187 181 186 181 182 185 175 179 179 170 175 176 176 181 181 178 173 181 172 151 143 131 133 207 92 106 158 122 126 163 148 192 187 351 348 24 147 122 21 27 87 84 319 90 126 286 329 300 322 353 344 329 353 355 350 5 19 20 19 18 20 26 29 28 25 24 23 24 24 24 23 22 22 18 13 9 6 8 13 16 15
205 209 195 195 192 182 194 191 177 188 188 184 183 176 175 176 172 176 179 175 174 183 173 154 155 152 157 178 166 187 203 145 163 185 247 203 165 356 327 345 7 319 98 360 158 185 270 97 211 272 318 329 337 352 343 326 349 360 353 2 20 20 15 17 18 24 31 30 28 28 26 27 26 25 25 23 21 18 14 12 11 12 15 16 15
206 213 194 193 200 192 195 196 182 189 190 181 182 182 181 181 177 177 176 175 176 179 179 167 164 181 181 171 170 183 200 207 171 182 264 311 83 320 256 220 3 348 331 96 159 164 157 327 273 282 313 337 343 347 345 335 351 6 357 356 15 18 11 15 16 19 28 29 28 28 28 27 24 22 23 21 18 16 13 12 12 15 16 15 15
208 207 195 193 205 205 198 200 195 192 188 180 178 178 180 181 182 182 177 176 178 176 181 170 153 181 200 177 182 181 172 191 180 204 246 183 149 262 253 250 349 20 57 86 120 135 5 313 274 286 310 338 347 343 344 349 354 360 355 352 5 14 10 10 13 14 21 25 24 24 24 24 21 20 20 19 18 15 13 12 12 15 17 16 16
220 208 201 197 204 209 203 204 204 197 194 189 184 180 182 184 182 181 180 182 184 176 179 173 156 182 207 196 199 179 166 194 197 218 239 212 192 172 123 277 300 32 65 47 253 171 22 322 258 273 311 343 348 345 355 359 342 339 347 351 355 5 7 5 9 12 14 18 18 16 17 17 17 16 17 17 17 15 13 12 11 14 16 17 16
217 214 209 202 204 208 203 207 213 207 200 198 194 190 189 190 182 177 181 184 189 189 189 185 168 176 203 230 233 183 179 210 198 194 251 253 229 188 132 278 270 188 83 336 245 187 33 2 300 295 326 346 346 352 9 348 319 323 341 349 348 357 3 0 5 9 9 13 12 10 9 10 12 12 13 14 14 14 13 11 10 12 14 16 16
201 214 217 209 208 209 201 202 214 217 210 205 204 202 199 196 189 188 191 190 201 208 203 195 182 187 198 211 235 211 193 211 192 207 281 287 256 165 165 256 247 203 210 244 241 239 279 328 337 317 328 340 333 331 331 315 313 326 335 339 343 351 355 355 359 2 5 7 6 5 3 3 7 8 8 10 11 11 12 11 9 9 12 14 15
198 206 214 214 212 210 205 203 210 220 218 211 212 210 206 205 197 194 196 200 207 209 206 201 196 203 203 200 217 219 206 200 193 205 247 279 261 177 205 265 261 228 221 236 248 257 268 279 296 301 317 327 312 308 311 315 328 335 328 331 339 344 347 348 349 351 356 359 358 358 357 357 1 3 5 7 8 8 9 10 8 8 10 12 13
205 204 205 210 217 217 211 207 209 218 222 217 217 216 212 212 207 197 199 214 218 213 211 208 199 214 225 216 218 217 213 212 203 201 216 242 256 222 214 254 267 259 255 258 263 267 274 284 286 290 303 296 291 302 311 317 329 326 320 326 333 340 340 336 338 342 344 347 348 350 350 351 355 359 2 5 6 6 6 7 7 6 9 10 11
210 211 209 205 212 222 218 211 209 214 223 224 221 222 219 215 213 209 208 220 229 224 221 213 200 211 234 232 226 221 217 221 220 209 209 240 282 288 268 270 277 280 285 287 286 286 282 279 286 295 297 295 304 316 313 309 314 315 317 324 335 351 339 321 326 334 334 337 340 340 343 347 350 354 358 1 3 2 2 5 5 5 7 9 10
211 214 218 211 207 214 215 213 209 209 223 231 224 223 226 221 217 214 214 221 226 223 224 224 211 211 227 236 234 232 230 234 241 231 209 217 251 276 289 297 308 305 296 297 297 293 288 284 290 297 301 306 308 300 290 295 305 312 320 327 334 345 327 307 314 327 331 333 333 332 336 342 345 347 351 356 359 359 358 360 2 3 5 8 9
215 213 220 221 214 213 211 211 212 209 219 233 230 222 227 232 226 216 215 227 236 231 225 227 225 220 225 232 235 238 239 248 262 261 240 225 226 234 245 250 247 238 248 274 285 285 287 290 292 295 296 292 281 277 285 296 305 312 319 324 326 328 324 312 311 318 326 326 325 327 331 335 338 341 347 352 354 356 355 355 358 1 3 6 8
219 217 217 220 222 225 219 213 214 211 211 227 234 226 222 230 234 224 215 220 233 239 235 231 232 235 236 235 236 237 234 238 248 252 246 237 232 233 236 238 239 235 233 242 255 266 279 288 293 297 299 299 294 295 302 306 310 313 314 317 318 317 319 320 315 313 318 319 321 325 327 329 333 337 342 347 349 351 353 353 355 358 360 3 7
217 223 222 219 220 229 231 223 221 219 212 215 227 229 224 226 234 234 226 222 225 231 236 237 234 236 240 240 239 237 235 235 238 243 247 246 243 242 245 250 253 258 265 270 271 272 278 288 295 298 301 303 305 312 318 319 318 317 315 316 314 306 306 313 313 311 312 316 321 323 324 329 333 333 336 342 345 346 348 350 352 355 357 360 4
215 221 228 228 222 224 232 232 229 228 224 219 223 229 229 226 233 240 237 233 233 233 233 237 236 234 236 239 238 235 237 240 241 244 249 249 250 250 250 251 249 249 258 268 275 280 285 291 297 300 305 313 320 325 327 322 316 313 314 320 324 323 320 311 304 305 311 318 323 323 325 330 330 329 332 336 337 339 341 344 346 350 354 357 0
217 218 225 233 233 229 230 233 233 232 234 232 230 233 234 228 229 239 242 240 242 243 241 241 241 241 241 245 245 241 241 245 245 243 243 245 251 254 251 250 250 251 253 257 265 274 283 290 296 302 308 313 311 305 301 302 303 305 310 318 327 334 331 314 307 311 313 315 318 319 322 326 323 323 328 330 330 329 332 339 341 343 349 353 356
219 219 222 229 238 237 233 234 235 234 236 239 238 239 240 236 228 231 240 241 241 244 246 246 244 242 243 249 254 254 254 258 259 257 254 251 252 255 258 258 259 261 264 266 268 268 270 276 282 286 288 289 288 290 297 305 308 311 315 318 321 323 316 309 313 320 318 315 314 313 313 313 313 317 322 324 323 320 324 332 336 338 344 348 351
224 221 222 224 232 238 237 239 239 237 237 240 243 244 245 245 238 232 234 239 240 240 242 244 245 243 242 244 247 252 257 265 271 273 273 267 259 256 258 260 261 262 265 268 271 272 271 273 277 280 282 284 289 296 304 306 307 310 313 313 314 313 309 309 312 315 317 319 318 307 301 303 308 314 317 318 318 314 316 325 331 334 339 343 346
227 226 226 223 227 233 237 240 243 243 239 238 243 248 249 250 248 242 237 237 240 240 238 238 241 242 244 244 243 244 247 255 263 268 271 271 270 268 265 263 264 266 269 272 275 276 277 278 279 281 283 285 290 292 291 291 295 300 302 302 303 302 300 299 301 306 313 319 317 306 300 304 308 309 311 315 314 309 310 317 324 328 332 337 341
220 224 227 224 225 230 234 236 238 241 241 238 239 247 252 254 253 250 246 240 239 241 240 238 238 239 241 242 242 243 243 245 251 255 259 262 267 271 272 269 269 269 271 274 276 278 279 280 281 280 278 280 284 283 280 282 285 287 286 284 282 281 282 287 293 301 310 315 311 305 307 313 312 308 310 311 308 305 310 315 319 322 325 331 335
217 221 223 221 222 224 228 234 235 236 240 240 239 242 249 255 257 256 253 248 242 241 242 243 242 241 242 243 243 245 247 248 251 255 258 262 267 273 276 275 271 268 268 269 272 275 277 279 280 280 279 280 281 281 281 281 279 278 275 272 271 273 278 285 291 298 305 308 304 299 306 315 314 309 310 307 300 302 309 313 314 316 319 324 329
225 226 226 223 222 220 221 224 228 233 238 242 243 242 244 251 256 257 256 253 249 245 244 247 248 248 248 249 248 248 248 249 253 259 265 269 273 276 277 277 275 272 270 270 272 274 275 276 277 278 281 283 284 286 288 284 278 274 273 275 278 280 283 287 292 296 298 299 295 293 300 310 314 310 308 303 297 301 305 307 308 309 311 318 322
235 235 234 232 230 228 226 224 223 227 231 236 242 246 247 248 252 255 257 257 254 250 246 245 248 252 255 256 256 256 255 253 251 252 258 265 270 271 272 274 277 278 278 277 277 276 275 274 274 277 281 284 284 288 290 285 279 276 277 279 282 284 286 290 291 292 290 290 290 291 294 303 311 307 302 298 297 301 302 303 303 303 306 313 316
242 242 241 239 238 239 239 235 232 231 231 232 236 243 249 251 252 254 256 258 258 256 251 246 244 246 250 254 257 260 262 262 260 258 256 258 261 264 267 270 274 278 280 280 279 277 275 273 273 275 278 281 283 286 288 286 282 281 281 281 282 283 286 287 287 287 288 290 293 292 291 302 313 303 294 289 292 298 298 298 299 299 304 309 311
246 246 246 244 244 244 245 244 241 240 239 238 239 241 245 250 253 255 255 256 258 258 257 254 250 247 246 248 250 253 256 259 262 264 264 262 261 261 263 266 270 274 278 281 282 281 279 277 275 276 278 281 284 286 288 286 284 284 282 278 276 277 280 282 284 286 288 291 294 292 289 296 305 299 289 284 287 292 291 291 294 297 301 306 308
250 249 249 248 247 247 247 248 246 245 244 244 243 243 244 247 251 253 254 254 255 257 258 258 257 255 252 250 250 251 253 255 257 260 263 265 266 266 266 266 267 269 271 275 279 281 282 282 281 281 282 284 286 287 288 285 283 282 276 272 270 269 268 270 274 278 280 282 283 282 280 282 288 292 290 284 282 285 287 288 292 295 300 304 308
252 250 248 247 247 248 250 250 248 247 247 246 246 246 247 248 249 251 252 253 255 257 259 260 262 262 260 258 256 255 255 257 259 260 261 262 264 267 268 269 268 268 269 270 270 272 276 278 279 280 281 281 281 281 281 281 282 279 273 272 276 273 266 265 268 270 273 277 279 275 271 274 279 284 283 274 272 281 286 288 289 292 297 301 303
255 254 252 250 249 249 250 249 248 247 246 246 247 247 247 248 249 250 251 253 255 257 259 261 263 265 267 266 264 261 260 260 261 262 262 263 263 265 267 268 268 269 272 272 271 270 272 273 273 274 274 275 276 276 276 277 278 276 273 274 278 275 269 268 269 268 269 276 282 276 267 268 274 279 274 265 268 278 283 283 285 288 291 295 298
Height
1589 1588 1589 1591 1592 1592 1593 1594 1594 1595 1595 1596 1596 1596 1595 1596 1596 1598 1599 1599 1600 1600 1600 1601 1601 1601 1601 1601 1602 1602 1601 1601 1601 1599 1599 1599 1599 1599 1599 1599 1600 1600 1600 1600 1600 1600 1600 1599 1599 1599 1599 1599 1598 1598 1598 1597 1597 1597 1596 1596 1595 1595 1594 1593 1593 1593 1592 1592 1591 1590 1590 1589 1589 1588 1588 1587 1587 1587 1586 1586 1585 1585 1584 1584 1583
1589 1588 1589 1591 1591 1593 1594 1594 1595 1595 1595 1596 1597 1597 1597 1598 1598 1599 1599 1599 1600 1600 1601 1602 1602 1602 1602 1602 1602 1602 1601 1602 1602 1601 1600 1600 1600 1600 1600 1600 1600 1600 1600 1601 1600 1600 1600 1600 1600 1600 1599 1599 1599 1598 1598 1598 1597 1597 1596 1596 1595 1595 1594 1593 1593 1592 1592 1591 1591 1590 1590 1589 1589 1588 1588 1587 1587 1586 1586 1586 1585 1584 1584 1583 1583
1590 1589 1590 1590 1591 1593 1594 1595 1595 1596 1596 1597 1598 1598 1598 1599 1598 1599 1600 1600 1601 1601 1601 1602 1603 1603 1603 1603 1603 1603 1602 1602 1602 1602 1601 1601 1601 1601 1601 1601 1601 1601 1601 1601 1601 1601 1601 1601 1600 1600 1600 1599 1599 1599 1598 1598 1597 1597 1596 1596 1595 1595 1594 1593 1593 1592 1592 1591 1591 1590 1590 1589 1589 1588 1588 1587 1587 1586 1586 1585 1584 1584 1583 1583 1582
1592 1592 1592 1592 1593 1594 1594 1596 1596 1597 1598 1598 1598 1599 1599 1599 1599 1599 1600 1600 1601 1601 1601 1602 1603 1604 1604 1604 1604 1604 1603 1603 1604 1603 1602 1602 1602 1602 1602 1602 1602 1602 1602 1602 1602 1602 1601 1601 1601 1601 1600 1600 1599 1599 1599 1598 1598 1597 1596 1596 1595 1595 1594 1593 1593 1592 1592 1591 1591 1590 1590 1589 1589 1588 1588 1587 1587 1586 1586 1585 1584 1584 1583 1582 1582
1593 1593 1594 1594 1595 1595 1596 1597 1598 1598 1598 1598 1599 1599 1599 1600 1600 1600 1600 1600 1601 1602 1602 1603 1604 1604 1605 1605 1605 1604 1604 1604 1605 1605 1604 1603 1602 1602 1603 1603 1603 1603 1603 1603 1603 1602 1602 1602 1601 1601 1601 1600 1600 1599 1599 1598 1598 1597 1596 1596 1595 1595 1594 1593 1593 1592 1592 1591 1591 1591 1590 1590 1589 1589 1588 1587 1587 1586 1585 1585 1584 1583 1582 1582 1581
1593 1594 1595 1596 1596 1597 1597 1598 1598 1598 1599 1599 1599 1599 1599 1600 1600 1600 1600 1601 1602 1603 1603 1604 1604 1605 1605 1605 1605 1605 1604 1605 1605 1605 1605 1604 1604 1603 1603 1603 1604 1604 1604 1603 1603 1603 1603 1602 1602 1602 1601 1601 1600 1600 1599 1599 1598 1597 1597 1596 1596 1595 1594 1594 1593 1593 1592 1592 1591 1591 1590 1590 1589 1589 1588 1588 1587 1586 1585 1584 1584 1583 1582 1581 1580
1593 1594 1595 1596 1596 1597 1597 1598 1598 1599 1599 1599 1599 1599 1600 1600 1600 1601 1601 1602 1603 1604 1604 1605 1605 1605 1605 1605 1605 1605 1605 1605 1605 1605 1605 1605 1605 1605 1604 1604 1604 1604 1604 1604 1604 1604 1603 1603 1603 1602 1602 1601 1601 1600 1600 1599 1598 1598 1597 1597 1596 1595 1595 1594 1594 1593 1593 1592 1592 1591 1590 1590 1589 1589 1588 1588 1587 1586 1585 1584 1583 1582 1581 1580 1579
1593 1594 1595 1595 1596 1596 1597 1598 1598 1598 1599 1599 1599 1599 1600 1600 1600 1601 1602 1603 1604 1604 1605 1605 1605 1605 1605 1605 1605 1605 1605 1605 1605 1605 1605 1605 1605 1605 1605 1605 1605 1604 1604 1604 1604 1605 1604 1604 1603 1603 1602 1602 1601 1601 1600 1599 1599 1598 1598 1597 1596 1596 1595 1594 1594 1593 1593 1592 1592 1591 1591 1590 1589 1589 1588 1587 1587 1586 1585 1584 1583 1582 1580 1579 1578
1593 1593 1594 1595 1595 1596 1597 1598 1598 1598 1599 1599 1599 1600 1600 1600 1601 1601 1602 1603 1604 1605 1605 1605 1605 1605 1605 1605 1605 1605 1605 1605 1606 1606 1605 1606 1606 1606 1606 1606 1606 1605 1605 1604 1605 1605 1605 1604 1604 1603 1603 1602 1602 1601 1600 1600 1599 1599 1598 1597 1597 1596 1595 1595 1594 1594 1593 1593 1592 1591 1591 1590 1590 1589 1588 1587 1587 1586 1585 1583 1582 1581 1580 1579 1578
1592 1593 1593 1594 1595 1596 1597 1598 1598 1598 1599 1599 1599 1600 1600 1601 1601 1601 1602 1602 1603 1604 1605 1605 1606 1606 1606 1605 1605 1605 1605 1605 1605 1606 1606 1606 1606 1607 1607 1606 1606 1606 1606 1605 1606 1606 1606 1605 1604 1604 1603 1603 1602 1601 1601 1600 1600 1599 1599 1598 1597 1597 1596 1595 1595 1594 1593 1593 1592 1592 1591 1590 1590 1589 1588 1587 1586 1585 1584 1583 1582 1581 1579 1578 1577
1592 1593 1593 1594 1595 1596 1597 1597 1598 1598 1599 1599 1599 1600 1600 1601 1601 1602 1602 1602 1603 1604 1605 1606 1606 1606 1606 1605 1605 1605 1605 1605 1605 1606 1606 1607 1607 1607 1607 1607 1607 1607 1607 1607 1607 1606 1606 1606 1605 1604 1603 1603 1602 1602 1601 1601 1601 1600 1599 1599 1598 1597 1597 1596 1595 1595 1594 1593 1593 1592 1591 1590 1590 1589 1588 1587 1586 1585 1584 1583 1581 1580 1579 1577 1576
1592 1593 1593 1594 1594 1595 1596 1597 1598 1598 1599 1599 1599 1600 1600 1601 1601 1602 1602 1603 1604 1604 1605 1606 1606 1606 1606 1606 1605 1605 1605 1605 1606 1606 1607 1607 1607 1607 1608 1608 1608 1608 1608 1608 1608 1607 1606 1606 1605 1603 1603 1603 1603 1602 1602 1602 1601 1601 1600 1599 1599 1598 1597 1596 1596 1595 1594 1593 1593 1592 1591 1590 1590 1589 1588 1587 1586 1585 1583 1582 1581 1580 1578 1576 1575
1592 1592 1593 1594 1594 1595 1596 1597 1597 1598 1599 1599 1600 1600 1600 1601 1602 1602 1603 1604 1605 1605 1605 1606 1606 1606 1606 1606 1605 1605 1605 1605 1606 1607 1607 1608 1607 1607 1608 1608 1608 1608 1608 1609 1609 1608 1607 1606 1605 1604 1604 1603 1603 1602 1602 1602 1602 1601 1601 1600 1599 1599 1598 1597 1596 1595 1594 1593 1593 1592 1591 1590 1589 1588 1587 1586 1585 1584 1583 1581 1580 1579 1577 1576 1574
1591 1592 1593 1593 1594 1595 1596 1597 1597 1598 1599 1599 1600 1600 1600 1601 1602 1603 1603 1604 1605 1605 1606 1606 1606 1607 1606 1606 1606 1606 1606 1605 1606 1607 1607 1608 1608 1608 1608 1608 1609 1609 1608 1609 1609 1608 1608 1607 1607 1606 1605 1604 1603 1603 1603 1603 1602 1602 1601 1601 1600 1599 1598 1597 1596 1595 1594 1593 1592 1592 1591 1590 1589 1588 1587 1586 1584 1583 1582 1580 1579 1578 1576 1575 1573
1591 1592 1593 1593 1594 1595 1595 1596 1597 1598 1599 1599 1600 1600 1601 1601 1602 1603 1603 1604 1605 1605 1606 1606 1606 1607 1606 1606 1606 1606 1606 1606 1606 1607 1608 1608 1608 1608 1609 1609 1610 1610 1610 1609 1609 1608 1609 1608 1608 1607 1606 1605 1604 1603 1603 1602 1602 1602 1602 1601 1600 1599 1598 1597 1596 1595 1594 1593 1592 1591 1590 1589 1588 1587 1586 1585 1583 1582 1581 1579 1578 1577 1575 1574 1572
1591 1592 1592 1593 1594 1595 1596 1596 1597 1598 1598 1599 1600 1600 1601 1601 1602 1602 1603 1604 1605 1606 1606 1606 1606 1606 1606 1606 1606 1606 1606 1606 1607 1607 1608 1609 1609 1609 1610 1610 1610 1610 1610 1610 1610 1610 1609 1608 1608 1607 1606 1605 1605 1604 1604 1603 1603 1603 1602 1601 1600 1599 1598 1597 1595 1594 1593 1592 1591 1590 1589 1588 1587 1586 1585 1584 1582 1581 1580 1579 1577 1576 1574 1573 1571
1591 1592 1592 1593 1594 1595 1596 1596 1597 1598 1598 1599 1599 1600 1600 1601 1602 1602 1603 1604 1605 1606 1606 1607 1607 1606 1607 1607 1607 1607 1606 1607 1607 1607 1608 1608 1609 1610 1610 1610 1610 1610 1610 1610 1611 1610 1610 1608 1608 1608 1606 1605 1605 1605 1605 1605 1604 1603 1602 1601 1600 1599 1598 1596 1595 1594 1593 1591 1590 1589 1589 1588 1587 1585 1584 1583 1582 1581 1579 1578 1577 1575 1573 1572 1570
1591 1591 1592 1593 1594 1594 1596 1596 1597 1598 1598 1599 1599 1600 1601 1601 1602 1602 1603 1604 1604 1605 1606 1607 1607 1607 1607 1608 1608 1608 1607 1607 1607 1608 1608 1608 1609 1610 1610 1610 1610 1610 1609 1610 1610 1611 1610 1609 1609 1608 1607 1607 1606 1606 1606 1606 1605 1605 1603 1602 1601 1599 1598 1596 1595 1593 1592 1591 1590 1589 1588 1587 1586 1585 1584 1583 1581 1580 1579 1577 1576 1574 1573 1571 1569
1590 1591 1592 1593 1594 1594 1595 1596 1596 1597 1598 1598 1599 1599 1600 1601 1602 1602 1603 1603 1604 1605 1606 1607 1607 1607 1608 1609 1609 1608 1608 1608 1608 1609 1609 1608 1609 1609 1610 1610 1610 1610 1610 1610 1610 1611 1611 1610 1610 1609 1608 1608 1608 1607 1607 1607 1606 1605 1604 1602 1601 1600 1598 1596 1595 1593 1592 1591 1590 1589 1588 1587 1586 1585 1583 1582 1581 1579 1578 1577 1575 1573 1572 1570 1569
1590 1591 1592 1593 1594 1594 1595 1595 1596 1597 1598 1598 1599 1599 1600 1601 1601 1602 1602 1603 1604 1605 1605 1606 1607 1608 1608 1609 1609 1609 1609 1609 1609 1609 1609 1609 1610 1609 1610 1610 1611 1611 1611 1611 1611 1611 1611 1611 1611 1610 1609 1609 1608 1608 1607 1606 1605 1605 1604 1602 1601 1600 1598 1597 1595 1594 1593 1592 1590 1589 1588 1587 1585 1584 1583 1582 1580 1579 1577 1576 1574 1573 1571 1570 1568
1590 1591 1592 1592 1593 1594 1594 1595 1596 1597 1597 1598 1598 1599 1600 1600 1601 1602 1602 1603 1604 1605 1605 1606 1607 1608 1608 1608 1609 1609 1609 1610 1610 1609 1609 1609 1610 1610 1610 1611 1611 1611 1611 1612 1612 1611 1611 1611 1611 1611 1610 1609 1609 1608 1607 1606 1606 1605 1604 1603 1602 1601 1599 1597 1596 1594 1593 1592 1590 1589 1588 1586 1585 1584 1583 1581 1580 1578 1577 1575 1573 1572 1571 1569 1567
1590 1591 1592 1592 1593 1594 1594 1595 1596 1596 1597 1597 1598 1599 1600 1600 1601 1601 1602 1603 1604 1604 1605 1606 1607 1607 1608 1608 1608 1608 1609 1609 1610 1610 1610 1610 1610 1610 1610 1611 1611 1611 1611 1611 1612 1612 1611 1611 1611 1611 1611 1610 1609 1609 1607 1606 1606 1605 1604 1603 1602 1601 1598 1597 1596 1595 1593 1592 1590 1589 1588 1586 1585 1583 1582 1581 1579 1578 1577 1575 1573 1572 1570 1568 1567
1590 1591 1591 1592 1593 1593 1594 1595 1596 1596 1597 1598 1598 1599 1600 1600 1601 1601 1602 1603 1604 1604 1605 1605 1607 1607 1608 1608 1608 1609 1609 1609 1610 1610 1610 1610 1610 1610 1610 1611 1611 1611 1611 1611 1611 1612 1612 1611 1611 1611 1611 1610 1609 1609 1608 1606 1606 1605 1604 1604 1602 1600 1598 1597 1596 1595 1593 1592 1590 1589 1588 1586 1585 1583 1582 1581 1579 1578 1577 1575 1573 1571 1569 1568 1566
1590 1590 1591 1592 1592 1593 1593 1594 1595 1596 1596 1597 1598 1599 1600 1600 1601 1601 1602 1603 1603 1604 1604 1605 1606 1607 1608 1609 1609 1609 1610 1610 1610 1611 1610 1610 1610 1610 1610 1610 1611 1611 1611 1610 1611 1611 1611 1612 1611 1610 1610 1610 1609 1609 1607 1605 1605 1605 1604 1603 1602 1600 1599 1598 1596 1595 1593 1592 1590 1589 1588 1586 1585 1584 1582 1581 1580 1578 1577 1575 1573 1571 1569 1568 1566
1590 1590 1591 1592 1592 1593 1593 1594 1595 1596 1596 1597 1598 1598 1599 1600 1600 1601 1602 1602 1603 1604 1604 1605 1606 1606 1607 1608 1609 1609 1610 1610 1610 1611 1611 1611 1611 1610 1610 1609 1610 1611 1611 1610 1611 1611 1611 1612 1611 1610 1610 1610 1609 1608 1607 1606 1605 1605 1604 1603 1602 1600 1599 1598 1597 1595 1594 1592 1591 1589 1588 1586 1585 1584 1583 1581 1580 1578 1577 1575 1573 1571 1570 1568 1566
1589 1590 1591 1591 1592 1593 1593 1594 1595 1596 1596 1597 1598 1598 1599 1600 1601 1601 1602 1602 1603 1603 1604 1604 1605 1606 1607 1608 1608 1609 1609 1610 1610 1610 1611 1611 1611 1610 1610 1609 1610 1610 1610 1610 1610 1611 1611 1611 1610 1609 1609 1610 1608 1607 1607 1606 1605 1605 1604 1603 1602 1600 1599 1598 1597 1596 1594 1592 1591 1590 1588 1587 1585 1584 1583 1581 1580 1578 1577 1575 1573 1571 1569 1568 1566
1589 1590 1591 1591 1592 1593 1593 1594 1595 1595 1596 1597 1598 1598 1599 1600 1600 1601 1601 1602 1603 1603 1604 1604 1605 1606 1606 1607 1607 1608 1609 1610 1610 1611 1611 1610 1610 1610 1610 1610 1610 1609 1610 1610 1610 1611 1611 1611 1610 1608 1608 1608 1608 1606 1606 1605 1604 1604 1604 1603 1601 1600 1599 1598 1597 1596 1594 1592 1591 1590 1588 1587 1586 1585 1583 1582 1580 1578 1577 1575 1573 1571 1569 1568 1566
1588 1589 1590 1591 1592 1593 1593 1594 1594 1595 1596 1596 1597 1598 1599 1600 1600 1601 1601 1602 1602 1603 1604 1604 1604 1605 1606 1606 1607 1607 1608 1609 1610 1610 1610 1610 1610 1610 1610 1610 1610 1609 1609 1610 1610 1610 1611 1611 1610 1609 1608 1608 1607 1606 1605 1604 1604 1604 1604 1603 1601 1600 1600 1599 1598 1596 1595 1593 1591 1590 1589 1587 1586 1585 1583 1582 1580 1578 1577 1575 1573 1571 1569 1567 1566
1588 1588 1589 1590 1591 1592 1593 1594 1594 1595 1596 1596 1597 1598 1599 1599 1600 1600 1601 1601 1602 1602 1603 1604 1604 1605 1606 1606 1606 1607 1607 1608 1609 1609 1609 1609 1609 1609 1610 1610 1609 1609 1609 1609 1609 1610 1610 1610 1610 1609 1608 1607 1607 1606 1605 1605 1605 1604 1604 1603 1601 1600 1599 1599 1597 1596 1595 1593 1591 1590 1589 1588 1586 1585 1583 1582 1580 1578 1577 1575 1573 1571 1569 1567 1565
1587 1588 1588 1589 1590 1591 1592 1593 1594 1595 1595 1596 1597 1597 1598 1599 1599 1600 1601 1601 1601 1602 1603 1603 1604 1604 1605 1606 1606 1606 1607 1607 1608 1609 1609 1609 1609 1609 1610 1610 1609 1609 1609 1609 1609 1609 1609 1609 1610 1609 1608 1607 1607 1606 1606 1606 1605 1604 1603 1602 1601 1599 1599 1598 1597 1596 1595 1593 1592 1590 1589 1588 1586 1585 1583 1581 1580 1578 1577 1575 1573 1571 1569 1567 1565
1586 1587 1588 1588 1589 1590 1591 1592 1593 1594 1595 1595 1596 1597 1597 1598 1599 1599 1600 1600 1601 1602 1602 1603 1603 1604 1604 1605 1606 1606 1606 1607 1608 1608 1608 1608 1608 1609 1609 1609 1609 1609 1609 1609 1609 1609 1609 1608 1609 1609 1608 1608 1607 1606 1606 1605 1604 1603 1602 1601 1600 1599 1598 1597 1596 1595 1594 1593 1592 1590 1589 1588 1586 1585 1583 1582 1580 1578 1577 1575 1573 1571 1569 1567 1565
1585 1586 1587 1587 1588 1589 1590 1591 1592 1593 1594 1595 1596 1596 1597 1598 1598 1599 1599 1600 1601 1601 1602 1602 1603 1603 1604 1605 1605 1605 1606 1606 1606 1607 1607 1608 1608 1608 1609 1609 1609 1608 1608 1608 1608 1608 1608 1608 1608 1608 1608 1608 1607 1606 1605 1604 1603 1602 1601 1601 1600 1598 1597 1596 1596 1594 1593 1593 1591 1590 1589 1588 1586 1585 1583 1582 1580 1578 1577 1575 1573 1571 1569 1567 1566
1584 1584 1586 1587 1588 1588 1589 1590 1591 1592 1593 1594 1595 1596 1596 1597 1597 1598 1599 1599 1600 1600 1601 1601 1602 1603 1603 1604 1604 1604 1605 1605 1605 1606 1606 1607 1608 1608 1608 1608 1608 1608 1608 1607 1607 1606 1607 1607 1607 1607 1607 1606 1606 1605 1604 1603 1602 1602 1601 1600 1599 1598 1596 1595 1595 1594 1593 1592 1591 1590 1589 1588 1586 1585 1583 1582 1580 1578 1577 1575 1573 1572 1570 1568 1566
1583 1584 1584 1585 1587 1588 1588 1590 1591 1592 1592 1593 1594 1595 1595 1596 1597 1598 1598 1598 1599 1599 1600 1601 1601 1602 1603 1603 1603 1604 1604 1604 1604 1605 1605 1606 1607 1607 1608 1608 1607 1607 1607 1607 1606 1606 1605 1605 1605 1605 1605 1605 1604 1604 1603 1602 1601 1600 1599 1599 1598 1597 1597 1595 1594 1593 1592 1591 1590 1590 1589 1587 1586 1585 1583 1582 1580 1578 1577 1575 1574 1572 1570 1568 1566
1582 1583 1584 1584 1586 1587 1588 1589 1590 1591 1592 1592 1593 1594 1595 1595 1596 1597 1598 1598 1598 1599 1599 1600 1600 1601 1601 1602 1602 1603 1603 1604 1604 1604 1604 1605 1606 1606 1607 1607 1607 1607 1607 1606 1606 1605 1604 1604 1604 1604 1603 1603 1603 1603 1602 1601 1600 1599 1598 1598 1597 1597 1596 1595 1593 1592 1592 1591 1590 1589 1588 1587 1586 1584 1583 1582 1580 1578 1577 1575 1573 1572 1570 1568 1566
1581 1582 1583 1584 1585 1585 1587 1588 1589 1590 1591 1592 1592 1593 1594 1595 1595 1596 1597 1597 1598 1598 1598 1599 1599 1600 1600 1601 1601 1602 1602 1603 1603 1603 1604 1604 1604 1605 1605 1606 1606 1606 1606 1605 1605 1604 1603 1603 1603 1603 1602 1602 1602 1601 1600 1599 1598 1598 1597 1597 1596 1595 1595 1594 1593 1592 1591 1590 1589 1589 1587 1586 1585 1584 1583 1581 1580 1578 1577 1575 1574 1572 1570 1568 1566
1580 1581 1582 1583 1584 1585 1585 1587 1588 1589 1590 1591 1591 1592 1593 1594 1594 1595 1595 1596 1597 1597 1597 1598 1598 1599 1600 1600 1601 1601 1601 1602 1602 1602 1602 1603 1603 1603 1604 1604 1604 1604 1604 1604 1604 1603 1603 1602 1601 1601 1601 1600 1600 1599 1599 1598 1597 1597 1596 1596 1595 1594 1593 1593 1592 1591 1590 1589 1589 1588 1586 1585 1584 1583 1582 1581 1580 1578 1577 1575 1573 1572 1570 1568 1566
1580 1580 1581 1581 1583 1584 1584 1585 1586 1587 1589 1590 1590 1591 1592 1593 1593 1594 1594 1595 1595 1596 1596 1597 1597 1598 1599 1599 1600 1600 1600 1601 1601 1601 1602 1602 1602 1602 1603 1603 1603 1603 1603 1603 1602 1602 1601 1601 1600 1600 1599 1599 1599 1598 1598 1598 1596 1595 1595 1594 1594 1593 1592 1592 1591 1590 1589 1588 1587 1586 1585 1584 1583 1582 1581 1580 1579 1578 1577 1575 1573 1572 1570 1568 1566
1578 1580 1580 1580 1581 1582 1583 1584 1585 1586 1587 1588 1589 1590 1590 1592 1592 1593 1593 1594 1594 1595 1595 1596 1596 1597 1597 1598 1598 1599 1599 1599 1600 1600 1601 1601 1601 1601 1601 1601 1601 1602 1601 1601 1601 1601 1600 1600 1599 1599 1598 1598 1598 1597 1597 1597 1596 1595 1594 1592 1592 1591 1591 1590 1590 1590 1588 1587 1586 1585 1584 1583 1582 1581 1580 1579 1578 1577 1576 1575 1573 1572 1570 1568 1566
1576 1578 1579 1579 1579 1580 1581 1582 1583 1585 1585 1586 1587 1588 1589 1590 1591 1592 1593 1593 1593 1594 1594 1595 1595 1596 1597 1597 1597 1597 1598 1598 1599 1599 1599 1599 1600 1600 1600 1600 1600 1600 1600 1600 1599 1599 1599 1599 1598 1598 1598 1597 1597 1596 1596 1596 1595 1593 1593 1591 1590 1590 1590 1589 1588 1588 1587 1586 1585 1584 1583 1582 1581 1580 1579 1578 1577 1576 1575 1574 1573 1571 1569 1567 1566
1575 1576 1577 1579 1579 1578 1579 1580 1581 1583 1584 1584 1585 1586 1587 1588 1590 1591 1592 1592 1592 1593 1593 1594 1594 1595 1596 1596 1597 1597 1597 1597 1597 1598 1598 1598 1598 1598 1599 1599 1599 1599 1598 1598 1598 1597 1597 1597 1597 1597 1596 1595 1595 1595 1594 1594 1593 1592 1591 1590 1589 1588 1588 1587 1586 1586 1586 1585 1584 1583 1581 1580 1579 1578 1577 1576 1575 1574 1574 1573 1572 1571 1569 1567 1566
1574 1575 1576 1577 1577 1577 1577 1578 1579 1580 1581 1582 1583 1584 1585 1586 1587 1589 1590 1590 1591 1591 1592 1593 1593 1594 1594 1594 1595 1596 1596 1596 1596 1596 1596 1596 1596 1597 1597 1597 1597 1597 1597 1596 1596 1596 1595 1595 1595 1595 1594 1593 1593 1593 1593 1592 1592 1591 1590 1589 1588 1587 1586 1585 1584 1584 1584 1583 1582 1581 1580 1579 1578 1576 1575 1574 1574 1573 1572 1572 1571 1570 1569 1567 1566
1571 1573 1573 1574 1575 1576 1576 1576 1576 1577 1578 1579 1580 1581 1582 1584 1585 1586 1587 1588 1589 1590 1590 1591 1591 1592 1592 1593 1593 1593 1594 1594 1594 1594 1594 1594 1594 1594 1595 1595 1595 1595 1595 1594 1594 1594 1593 1593 1593 1593 1592 1591 1591 1591 1591 1590 1590 1589 1589 1588 1587 1586 1585 1584 1582 1582 1582 1581 1580 1579 1578 1578 1577 1575 1573 1571 1571 1571 1571 1570 1570 1569 1568 1566 1565
1569 1570 1570 1570 1570 1571 1572 1573 1574 1574 1575 1576 1577 1578 1579 1581 1582 1584 1585 1586 1586 1587 1588 1588 1589 1590 1590 1590 1591 1591 1592 1592 1592 1592 1592 1592 1592 1592 1592 1592 1593 1593 1592 1592 1592 1591 1591 1591 1590 1590 1590 1589 1589 1589 1588 1588 1587 1587 1587 1586 1585 1584 1583 1582 1580 1579 1579 1579 1578 1577 1576 1575 1575 1573 1572 1570 1569 1568 1569 1569 1568 1567 1566 1565 1564
1568 1568 1569 1568 1567 1567 1567 1568 1569 1571 1572 1573 1574 1575 1576 1577 1579 1580 1581 1583 1583 1584 1585 1586 1586 1587 1587 1588 1588 1589 1589 1590 1590 1590 1589 1589 1590 1590 1590 1589 1589 1590 1590 1590 1590 1589 1589 1588 1588 1587 1587 1587 1586 1586 1586 1585 1584 1584 1583 1583 1582 1581 1580 1579 1578 1577 1577 1577 1576 1574 1573 1573 1572 1571 1570 1569 1568 1567 1567 1566 1566 1565 1564 1564 1563
1566 1566 1567 1567 1567 1567 1566 1565 1565 1566 1568 1570 1571 1572 1573 1574 1575 1577 1578 1579 1580 1581 1582 1583 1584 1584 1584 1585 1585 1585 1586 1587 1587 1588 1587 1587 1587 1587 1587 1586 1586 1586 1586 1587 1587 1586 1586 1585 1584 1584 1584 1584 1583 1582 1583 1583 1582 1581 1580 1580 1579 1578 1577 1576 1575 1575 1574 1574 1574 1572 1570 1570 1570 1569 1568 1568 1567 1566 1565 1564 1564 1563 1563 1562 1561
1563 1564 1564 1564 1565 1566 1566 1566 1565 1564 1565 1567 1568 1570 1571 1571 1573 1574 1574 1575 1576 1577 1579 1580 1581 1582 1582 1582 1582 1582 1582 1582 1583 1584 1585 1585 1585 1584 1583 1583 1582 1582 1582 1582 1583 1583 1583 1582 1581 1580 1580 1581 1580 1579 1580 1579 1579 1578 1577 1576 1576 1575 1574 1573 1572 1572 1571 1571 1571 1570 1568 1567 1568 1567 1565 1565 1565 1564 1564 1563 1562 1562 1561 1561 1560
1560 1561 1561 1561 1561 1562 1563 1563 1563 1562 1562 1564 1565 1567 1568 1569 1570 1571 1571 1572 1572 1573 1574 1575 1577 1578 1578 1579 1579 1579 1579 1579 1579 1580 1581 1581 1582 1581 1581 1580 1579 1578 1577 1577 1578 1578 1578 1578 1578 1577 1577 1577 1577 1576 1576 1576 1575 1575 1574 1573 1573 1572 1571 1570 1569 1569 1568 1568 1569 1568 1566 1565 1565 1565 1564 1563 1562 1562 1562 1562 1561 1560 1560 1559 1558
1557 1557 1558 1558 1558 1558 1558 1558 1558 1558 1559 1560 1562 1563 1565 1567 1568 1568 1569 1569 1569 1570 1570 1571 1572 1573 1574 1574 1575 1575 1575 1575 1576 1577 1577 1578 1578 1577 1577 1577 1576 1575 1574 1574 1574 1574 1574 1574 1573 1573 1573 1573 1573 1573 1573 1573 1572 1572 1571 1570 1570 1570 1569 1568 1567 1566 1566 1565 1566 1566 1564 1563 1563 1563 1562 1561 1560 1560 1560 1560 1559 1559 1558 1557 1556
1554 1554 1553 1553 1553 1553 1554 1554 1555 1555 1556 1558 1559 1560 1562 1564 1565 1565 1566 1567 1567 1567 1567 1568 1568 1569 1569 1570 1570 1570 1570 1571 1572 1573 1574 1574 1574 1573 1573 1573 1572 1571 1570 1571 1571 1571 1570 1570 1570 1569 1569 1569 1569 1569 1569 1569 1569 1569 1568 1566 1567 1567 1566 1565 1564 1563 1563 1562 1563 1563 1562 1561 1561 1561 1561 1560 1558 1557 1557 1557 1557 1556 1556 1555 1554
1551 1551 1551 1550 1550 1550 1550 1551 1551 1552 1553 1554 1556 1558 1559 1560 1561 1562 1563 1564 1564 1564 1564 1564 1565 1565 1564 1565 1565 1566 1566 1567 1568 1569 1569 1570 1569 1569 1569 1569 1567 1566 1566 1567 1568 1567 1567 1566 1566 1565 1565 1565 1565 1565 1565 1565 1565 1565 1564 1563 1564 1564 1563 1562 1561 1561 1560 1559 1559 1561 1560 1559 1559 1559 1558 1558 1557 1555 1554 1554 1554 1554 1553 1552 1552